This is the latest recevied weather packets stored in our database for station/object N5UKZ-WX. If no packets are shown the sender has not sent any weather packets the latest 10 day(s).
| Time | Temp. | Humidity | Pressure | Rain* | Wind** | Luminosity | Snow |
|---|---|---|---|---|---|---|---|
| 1777699273 | 13.89° C | 100% | 1013.9 hPa | 0 mm | - | - | - |
| 1777698373 | 14.44° C | 100% | 1014.3 hPa | 0 mm | - | - | - |
| 1777697473 | 14.44° C | 100% | 1013.9 hPa | 0 mm | - | - | - |
| 1777696573 | 13.89° C | 100% | 1013.2 hPa | 0 mm | - | - | - |
| 1777695672 | 14.44° C | 100% | 1013.2 hPa | 0 mm | - | - | - |
| 1777694772 | 15° C | 100% | 1013.6 hPa | 0.25 mm | - | - | - |
| 1777693872 | 14.44° C | 100% | 1013.2 hPa | 0.25 mm | - | - | - |
| 1777692972 | 14.44° C | 100% | 1013.2 hPa | 0.25 mm | - | - | - |
| 1777692071 | 14.44° C | 100% | 1013.2 hPa | 0.25 mm | - | - | - |
| 1777691171 | 14.44° C | 100% | 1013.2 hPa | 0 mm | - | - | - |
| 1777690271 | 14.44° C | 100% | 1012.9 hPa | 0 mm | - | - | - |
| 1777689371 | 14.44° C | 100% | 1013.2 hPa | 0 mm | - | - | - |
| 1777688471 | 15° C | 100% | 1012.9 hPa | 0 mm | - | - | - |
| 1777687571 | 15° C | 100% | 1012.6 hPa | 0 mm | - | - | - |
| 1777686670 | 14.44° C | 100% | 1012.2 hPa | 0 mm | - | - | - |
| 1777685770 | 14.44° C | 100% | 1011.9 hPa | 0 mm | - | - | - |
| 1777684870 | 14.44° C | 100% | 1011.6 hPa | 0 mm | - | - | - |
| 1777683970 | 14.44° C | 100% | 1010.9 hPa | 0 mm | - | - | - |
| 1777683070 | 14.44° C | 100% | 1010.2 hPa | 0 mm | - | - | - |
| 1777682170 | 14.44° C | 100% | 1011.2 hPa | 0 mm | - | - | - |
| 1777681269 | 15.56° C | 100% | 1011.2 hPa | 0 mm | - | - | - |
| 1777680369 | 15° C | 100% | 1011.9 hPa | 0 mm | - | - | - |
| 1777679469 | 14.44° C | 100% | 1012.9 hPa | 0 mm | - | - | - |
| 1777678569 | 14.44° C | 100% | 1011.9 hPa | 0 mm | - | - | - |
| 1777677669 | 14.44° C | 100% | 1011.9 hPa | 0 mm | - | - | - |
* Rain latest hour (hover to see other rain measurements)
** Current wind speed in m/s (hover to see current wind gust speed)